Location: Wawayanda State Park
(41.1833°N, 74.4333°W)
Time: 02:04:17
(UTC-04:00)

Landsat 7 - Visible Passes

Search period start: 21 September 2014 00:00
Search period end: 01 October 2014 00:00
Orbit: 702 x 703 km, 98.2° (Epoch: 20 September)

Date Brightness Start Highest point End Pass type
(mag) Time Alt. Az. Time Alt. Az. Time Alt. Az.
21 Sep 6.3 21:26:52 11° NNE 21:26:52 11° NNE 21:27:02 10° NNE visible
21 Sep 6.9 23:05:46 11° NNW 23:05:46 11° NNW 23:05:56 10° NNW visible
22 Sep 6.4 22:10:16 13° N 22:10:16 13° N 22:10:51 10° N visible
23 Sep 6.8 22:53:40 11° NNW 22:53:40 11° NNW 22:53:49 10° NNW visible
24 Sep 6.5 21:58:10 12° N 21:58:10 12° N 21:58:28 10° N visible
25 Sep 6.8 22:41:34 10° NNW 22:41:34 10° NNW 22:41:37 10° NNW visible
